Temp
15 16 15 15 16 18 17 17 18 18 20 19 19 18 19 19 19 18 18 18 18 17 18 18 19 19 20 19 19 18 18 17 17 17 16 17 16 16 16 16 16 16 16 16
14 15 16 16 16 16 18 17 18 20 20 19 19 18 18 19 19 19 19 18 18 18 17 18 19 20 20 19 19 18 18 17 17 17 16 16 16 16 16 16 16 16 16 16
15 16 16 16 16 16 16 17 19 20 19 19 18 16 17 19 18 19 19 19 19 17 18 18 18 19 20 19 19 18 18 18 17 16 16 16 16 16 16 16 16 16 16 16
16 16 16 16 16 17 16 18 19 18 18 17 17 15 17 19 18 19 19 17 18 18 17 18 18 18 18 19 19 19 18 17 17 17 16 15 16 15 15 16 16 16 16 16
15 15 15 16 16 18 17 17 17 17 15 16 17 16 15 17 19 19 20 18 18 18 18 17 18 18 19 19 19 19 19 18 17 17 16 15 15 15 15 15 16 16 16 16
15 16 16 17 17 17 15 15 15 14 15 16 16 16 15 18 20 20 19 20 20 18 17 17 19 19 18 18 18 19 18 18 18 17 17 16 15 15 15 15 15 16 16 16
13 14 15 17 15 15 16 17 14 15 15 15 15 15 19 18 18 19 21 20 18 17 17 18 16 17 18 18 18 18 19 18 18 18 17 16 16 15 15 15 15 15 15 16
13 13 15 15 18 15 16 17 13 13 14 13 13 14 17 19 20 18 19 19 19 18 16 16 17 18 18 18 18 18 18 18 17 17 17 17 16 16 16 16 15 15 16 16
14 14 14 15 15 16 14 16 15 13 6 11 13 15 17 18 18 18 18 19 19 19 19 20 16 18 18 19 19 19 18 18 18 18 17 17 17 16 16 15 16 16 17 16
15 13 14 13 15 16 16 16 16 12 12 13 14 15 16 18 17 18 18 18 18 18 17 16 16 17 18 18 18 18 18 18 17 17 17 17 17 17 16 16 16 16 16 16
16 14 11 13 14 16 15 16 15 15 13 13 13 14 15 18 19 17 17 17 15 14 14 14 15 17 17 18 18 17 17 17 17 17 17 17 16 16 16 16 16 16 16 16
15 14 12 13 12 14 16 16 17 16 14 13 13 15 19 17 17 15 15 14 14 14 14 14 15 16 16 17 17 16 16 16 16 16 16 16 16 16 16 16 15 15 16 16
14 13 12 11 12 12 15 15 17 14 12 14 13 14 16 15 15 14 14 14 15 15 14 13 13 13 14 15 15 16 15 16 16 16 15 15 15 15 15 15 16 15 15 15
14 13 15 15 15 14 14 16 16 15 13 13 16 16 15 15 15 14 15 14 14 15 15 14 13 13 15 16 16 15 15 14 14 13 13 14 14 14 14 14 15 15 14 14
14 12 14 15 15 16 14 15 15 15 16 16 18 17 16 16 15 15 15 15 15 16 16 14 14 13 14 15 15 14 14 13 13 12 12 12 12 12 12 13 13 13 12 12
14 13 12 10 13 14 14 15 15 16 17 17 16 16 17 15 15 14 15 15 15 16 16 16 16 15 14 14 14 14 13 13 12 11 11 10 10 10 10 11 11 10 10 10
15 11 11 9 10 11 10 14 15 16 17 17 16 18 15 15 15 15 15 14 15 15 15 15 14 11 11 12 13 13 12 11 10 10 9 9 9 9 9 9 8 8 7 7
14 11 10 10 12 12 14 15 16 16 17 17 17 15 15 15 15 14 14 14 14 15 15 11 9 9 10 11 11 10 10 9 9 8 7 7 7 7 7 7 7 6 5 6
15 10 9 10 11 11 13 12 14 14 16 17 17 16 14 15 15 15 13 13 12 9 7 7 8 8 8 8 9 9 8 7 7 6 6 6 6 6 6 6 5 6 5 5
11 13 11 8 11 11 14 13 15 15 14 16 16 16 15 13 14 14 9 7 6 5 5 6 7 6 6 6 7 7 5 5 5 5 5 5 5 5 5 4 4 4 4 3
10 10 12 11 8 9 11 11 15 13 15 13 15 16 15 14 16 10 6 5 4 4 4 5 4 2 3 4 5 4 3 3 3 3 3 3 3 2 2 2 2 2 2 1
11 11 10 6 5 12 10 12 15 15 12 11 11 14 13 10 7 6 5 3 2 1 2 2 1 -0 1 3 4 2 1 1 3 3 3 3 2 2 2 2 1 1 1 0
11 12 11 13 12 11 9 13 14 10 11 11 10 9 9 7 6 5 3 1 0 -0 -0 0 -1 -1 -1 0 1 0 0 2 2 3 2 1 1 1 1 0 -0 -0 -0 -1
10 10 9 11 11 10 10 11 11 11 11 9 8 7 8 6 5 3 1 -0 -1 -2 -2 -1 -2 -3 -4 -2 -1 -1 0 1 2 1 1 0 -0 -0 -1 -1 -1 -1 -1 -1
8 9 7 7 9 8 10 10 9 8 7 6 5 6 5 5 3 2 -0 -2 -2 -3 -3 -2 -3 -5 -5 -2 -2 -1 -1 -0 0 -0 -1 -1 -1 -1 -1 -2 -2 -2 -2 -2
6 11 12 10 9 10 12 9 6 6 7 5 4 4 2 3 1 -0 -1 -2 -3 -4 -4 -5 -5 -5 -5 -4 -3 -2 -2 -1 0 -1 -2 -2 -2 -2 -2 -2 -2 -2 -2 -3
Height
820 825 826 831 831 829 837 841 842 834 825 833 832 835 828 819 820 822 818 818 818 817 815 820 825 830 831 834 835 837 841 846 850 853 856 861 863 865 867 869 871 873 874 876
823 819 819 828 832 833 832 839 837 826 822 828 831 832 824 818 813 814 813 812 812 813 815 816 818 822 823 826 829 832 835 840 845 848 850 854 858 861 864 867 869 869 871 873
808 802 815 823 830 835 834 835 831 829 828 825 832 837 826 812 808 804 803 803 801 805 808 809 811 813 818 821 824 826 829 833 838 841 846 850 856 858 860 861 863 864 867 868
805 802 805 818 822 826 835 825 827 831 837 847 834 851 825 809 807 802 799 800 798 798 799 801 802 808 810 813 817 822 825 829 833 837 839 841 843 845 847 851 854 857 859 862
789 793 804 812 809 815 827 824 830 834 845 841 838 845 826 811 808 800 792 793 791 790 792 795 797 797 798 806 810 814 818 822 826 830 833 837 839 840 842 845 848 851 854 856
787 786 796 797 805 810 823 829 838 842 843 844 836 837 826 810 797 789 785 782 781 784 786 785 787 790 794 799 805 810 813 815 820 824 827 830 833 836 838 840 842 844 847 849
795 795 793 792 809 813 816 823 852 854 852 836 828 836 803 796 786 781 778 778 777 778 780 780 782 786 789 792 796 801 806 811 814 817 819 822 826 831 832 835 836 839 840 841
786 802 787 783 785 801 802 807 834 849 843 844 836 829 803 777 770 774 773 772 775 775 775 776 775 777 781 785 790 795 800 805 809 812 813 817 820 822 824 827 829 831 832 834
773 784 781 779 785 790 806 805 812 835 877 851 829 809 789 775 774 771 772 770 772 771 771 772 772 775 778 780 783 786 790 793 798 800 804 808 811 814 815 818 820 821 823 824
746 782 782 785 783 790 791 795 815 829 842 841 821 809 795 781 774 772 770 769 770 771 774 775 775 776 777 779 781 783 785 787 790 795 798 799 801 803 807 810 810 810 811 812
734 755 792 786 781 778 792 790 796 799 816 821 825 803 773 766 759 767 768 769 772 775 775 775 774 776 777 778 780 782 784 785 786 789 792 795 797 798 800 801 801 803 806 807
732 750 776 774 784 775 776 780 781 793 805 807 808 796 756 758 759 766 772 772 771 771 773 774 774 775 776 778 779 780 780 781 784 786 788 789 791 794 796 796 798 799 801 803
729 751 774 789 788 785 776 774 774 785 797 797 809 795 763 764 764 768 769 770 770 770 772 773 774 775 777 777 777 777 777 776 778 780 783 785 787 789 791 793 794 795 796 797
716 736 729 733 726 751 767 764 771 781 796 792 772 773 772 768 764 767 766 767 768 769 769 771 773 773 773 773 774 774 774 775 776 777 778 780 782 784 786 789 792 793 794 795
709 732 730 726 735 742 755 763 770 773 768 773 751 766 761 759 759 759 759 762 765 765 766 767 768 769 769 770 770 770 770 771 772 773 775 777 779 780 782 783 785 788 791 791
712 725 729 752 742 742 750 751 754 749 747 747 757 758 747 753 752 755 756 758 760 762 762 763 764 765 767 767 767 767 767 768 770 771 771 772 774 776 778 779 780 782 784 785
701 721 734 765 754 756 774 734 731 729 741 733 752 737 748 749 749 750 751 753 754 756 758 759 761 763 764 765 764 765 766 767 768 770 771 772 773 772 774 775 778 780 782 784
690 712 733 750 741 751 718 715 717 722 724 722 726 738 743 741 739 741 742 745 749 752 754 759 761 762 762 762 762 763 763 765 767 768 770 772 774 776 777 777 776 777 781 782
678 707 738 742 736 736 717 715 712 722 713 714 719 730 739 737 739 741 740 741 745 751 756 759 760 760 761 762 763 764 765 766 767 767 767 768 770 772 773 774 775 777 777 779
693 687 706 747 737 735 694 694 697 717 722 697 705 715 727 738 741 738 745 744 749 751 755 758 760 761 761 763 763 764 766 768 768 768 769 770 770 771 771 773 774 775 773 775
701 708 702 716 743 725 694 692 697 730 686 681 685 694 710 721 714 731 740 744 748 753 755 758 761 763 763 765 766 766 768 768 769 769 769 769 770 771 772 773 773 775 774 776
681 691 705 741 758 701 680 688 682 670 677 682 685 685 699 711 723 731 738 745 751 754 756 759 762 766 767 768 768 768 769 770 769 769 769 768 770 770 771 772 772 773 774 775
675 657 668 670 666 667 674 666 664 673 679 681 682 687 694 709 721 729 740 747 750 752 756 761 762 765 769 770 769 768 770 770 768 768 770 771 772 772 773 774 773 774 773 773
663 662 674 673 668 664 666 669 669 672 673 678 680 685 693 708 720 730 739 745 750 753 757 760 763 766 768 769 768 768 770 771 772 773 774 775 775 775 775 777 777 776 776 775
661 664 676 676 665 668 667 666 668 674 678 679 683 687 696 706 721 728 738 744 749 753 756 758 760 763 767 767 768 769 771 774 771 772 774 775 775 776 775 774 774 775 778 780
667 650 648 656 657 656 655 659 667 675 677 681 686 698 705 708 717 727 737 742 747 754 758 759 761 761 766 769 769 771 773 771 771 772 775 773 774 775 773 773 773 774 775 778
Wind_Speed
4 7 14 11 11 5 8 6 10 6 7 6 16 6 11 10 6 7 8 8 12 15 23 30 34 30 36 34 36 35 34 41 38 33 30 30 31 30 27 27 26 23 22 22
4 17 12 8 6 7 6 8 9 3 3 6 5 10 9 9 9 9 12 11 10 10 8 22 31 36 36 35 39 37 37 36 43 40 36 33 34 31 28 27 27 26 26 22
20 15 11 12 9 14 10 7 8 5 2 3 2 6 7 9 8 9 13 9 9 12 15 14 23 35 36 34 40 41 40 39 38 42 36 31 29 30 29 31 30 30 30 28
17 6 22 16 18 13 15 6 4 7 7 5 5 5 5 6 10 11 10 9 10 10 10 15 24 26 33 41 40 41 40 41 39 38 36 37 33 30 33 35 36 34 33 33
18 24 22 21 23 17 6 8 5 3 3 1 3 1 6 7 5 10 15 12 13 13 11 12 22 33 40 38 40 40 42 43 41 41 38 38 32 30 30 32 36 36 35 35
2 10 12 18 11 12 8 7 6 3 2 6 8 6 5 6 9 7 7 14 15 12 12 12 27 31 30 36 37 40 39 42 43 42 42 39 35 31 29 34 36 37 38 38
5 7 10 18 9 8 9 13 2 4 4 9 6 8 13 7 9 7 6 7 10 9 9 13 10 19 25 34 38 39 40 36 39 43 44 42 40 37 34 35 36 33 37 38
13 8 15 10 21 12 22 15 5 7 5 5 1 8 6 17 18 8 9 8 4 8 7 9 12 21 28 34 37 37 35 37 37 40 43 43 41 39 40 39 35 38 39 40
13 6 4 4 7 14 8 14 6 5 2 2 5 6 9 7 9 6 8 5 7 6 3 1 9 17 25 31 37 41 42 43 41 44 43 41 44 41 37 38 39 42 42 42
7 6 2 2 6 1 12 12 7 1 5 5 5 4 5 7 11 8 7 8 2 2 5 4 4 3 8 19 29 35 39 40 41 41 40 42 44 45 44 40 43 44 46 44
13 6 3 6 10 19 7 12 4 5 5 5 3 6 7 11 15 9 5 7 8 7 5 3 1 1 1 5 9 16 26 33 37 37 41 40 39 42 43 44 46 45 44 44
5 6 10 13 4 4 7 11 11 8 8 3 2 5 3 7 8 10 8 7 7 8 7 4 1 2 2 4 6 11 15 17 24 28 32 37 40 40 41 42 39 38 40 42
9 5 9 3 5 4 18 12 19 3 3 10 5 5 0 3 9 7 11 9 8 7 6 4 2 5 6 6 6 8 9 13 19 21 23 25 28 31 31 35 38 35 34 34
9 7 16 20 33 10 19 23 20 4 5 4 15 4 4 7 11 9 8 8 8 7 7 4 2 4 5 5 7 7 9 10 11 15 18 20 22 23 23 25 31 27 25 27
7 7 8 4 7 16 22 19 21 19 14 11 16 13 15 13 11 10 10 8 7 7 6 6 4 3 5 6 6 7 7 9 10 11 13 15 15 16 18 20 22 25 28 26
4 8 5 2 12 18 24 26 26 29 27 23 4 13 7 8 7 8 9 9 7 7 7 5 4 2 4 6 8 7 7 8 9 10 11 12 13 13 15 16 18 20 23 23
15 7 5 2 7 10 5 31 32 30 24 30 19 17 9 8 8 10 11 9 8 7 6 4 2 2 3 5 4 5 5 6 7 8 9 9 11 12 14 14 15 16 17 19
16 8 3 4 11 9 7 21 29 29 29 29 21 8 9 9 8 8 7 9 8 6 5 4 3 3 5 5 4 2 1 2 4 5 6 7 8 10 10 11 11 12 13 16
11 7 5 6 10 4 7 8 29 22 30 25 27 15 7 5 6 3 3 4 5 6 5 4 4 5 6 7 5 4 5 3 1 2 4 5 7 9 10 11 10 10 13 15
4 6 7 4 7 12 4 7 20 7 18 25 22 21 16 8 9 6 7 6 7 11 8 7 8 10 10 9 7 9 9 8 7 5 4 3 4 5 7 8 9 12 12 14
9 6 11 8 3 8 7 6 21 13 12 14 26 26 22 16 11 7 9 6 11 12 12 13 13 14 11 9 9 14 12 13 9 7 7 6 6 6 6 7 7 8 8 10
11 11 6 3 3 12 9 17 25 4 4 6 8 18 13 8 10 12 10 9 8 11 15 15 18 17 15 13 13 15 16 11 10 10 10 10 8 7 5 4 4 4 4 6
3 10 10 14 8 4 6 10 10 4 6 6 8 7 11 13 8 12 11 9 7 14 16 18 22 21 19 17 15 18 14 12 12 13 14 13 11 10 8 6 4 3 4 4
3 4 5 4 6 5 9 2 5 4 4 6 5 10 16 11 15 12 11 10 8 14 17 22 23 21 20 18 19 18 14 12 13 16 15 14 13 12 11 9 9 8 7 6
4 7 6 1 2 5 2 5 7 6 7 9 8 6 9 18 12 13 11 11 12 14 20 22 22 21 19 17 18 17 15 12 17 17 16 15 14 13 13 11 10 10 9 10
4 3 7 5 8 4 12 8 8 8 7 9 9 7 6 13 15 15 11 14 16 16 20 21 22 24 19 18 19 17 15 15 15 18 16 15 14 14 13 12 11 8 6 6
Wind_Direction
221 181 203 206 203 190 162 196 204 232 231 162 223 217 237 262 215 233 232 215 195 200 201 200 208 218 200 204 201 204 203 207 203 199 201 209 212 213 217 214 216 218 214 213
150 216 194 152 211 233 219 199 221 269 153 173 237 245 234 239 234 209 217 227 198 204 191 197 201 203 200 205 202 207 208 209 208 205 206 210 213 215 220 218 219 220 219 219
196 205 156 189 191 211 231 236 204 206 203 315 357 277 232 240 222 221 221 217 214 189 198 200 193 197 203 206 202 205 210 212 210 209 209 212 219 221 222 222 221 220 221 224
216 183 179 193 205 191 206 194 191 148 148 223 185 277 287 236 242 233 229 213 216 212 198 199 195 197 201 210 210 209 208 211 214 212 208 206 208 208 216 219 220 219 221 225
199 180 184 197 201 189 208 145 124 107 111 17 243 249 264 244 250 240 231 224 217 212 204 194 198 202 207 208 212 212 211 211 212 213 210 211 212 217 216 216 221 220 221 225
130 183 177 197 187 177 151 95 60 56 88 243 207 199 240 219 239 240 222 229 220 212 212 214 203 207 204 206 208 213 213 213 214 214 214 216 215 215 213 216 221 224 227 229
148 193 175 175 142 151 145 158 146 209 216 239 220 201 245 234 231 209 218 231 220 216 214 217 201 196 197 198 206 209 213 212 214 215 216 215 219 218 220 219 220 219 226 231
155 187 178 174 190 174 180 173 152 179 205 222 304 229 251 225 239 225 228 239 197 195 219 224 219 201 199 203 204 205 209 215 215 218 220 220 221 220 222 227 222 224 230 236
170 201 151 187 134 159 178 197 144 105 40 98 210 276 307 261 231 215 216 202 224 237 215 204 228 219 214 211 210 211 213 219 218 221 222 221 223 221 224 224 227 231 238 239
162 112 184 139 109 58 183 161 167 117 154 237 253 248 227 219 238 224 223 215 266 191 96 72 57 118 208 224 223 221 224 223 225 223 222 223 225 227 226 229 229 229 234 236
150 118 191 165 202 186 164 192 188 130 162 177 178 253 218 204 211 200 158 139 133 113 110 92 50 28 263 240 234 233 231 233 234 233 232 231 231 232 232 229 232 233 233 236
182 124 161 189 6 267 194 190 189 188 210 214 179 271 291 210 156 136 144 138 141 140 144 152 204 326 315 298 278 261 252 251 247 246 242 239 241 241 238 237 235 234 236 240
171 144 136 125 3 335 203 189 199 95 85 209 144 244 306 127 117 156 145 154 151 156 177 204 216 244 259 273 280 272 257 249 245 246 248 250 252 251 249 247 247 247 245 244
120 168 180 190 203 136 190 199 199 153 189 170 223 170 218 180 150 166 161 168 179 186 193 199 211 208 220 249 262 275 264 257 257 248 246 248 250 250 248 247 251 257 256 253
135 163 175 114 152 173 181 180 189 210 203 201 223 204 200 191 172 179 181 182 174 191 184 177 182 219 239 245 269 267 262 251 251 245 244 251 255 253 248 246 245 250 257 259
219 165 123 85 173 167 183 194 195 211 209 228 121 223 194 190 172 166 180 176 185 198 193 161 165 193 302 299 294 285 262 254 241 238 238 241 242 244 245 249 248 243 247 250
182 135 121 194 151 111 185 200 197 211 205 217 215 216 187 201 176 179 192 176 176 185 169 180 106 59 346 332 279 287 269 239 231 244 249 247 241 236 237 243 247 250 247 248
163 125 93 146 126 186 235 188 209 208 208 215 220 167 181 185 187 176 179 164 181 182 167 127 84 18 5 9 19 13 31 208 212 234 253 252 253 259 261 256 252 249 255 260
174 130 116 161 193 288 261 204 194 191 223 215 217 194 186 185 146 218 174 137 139 125 110 111 64 60 70 56 55 84 89 92 73 306 276 257 250 258 262 264 263 272 263 264
82 159 123 144 158 213 173 187 190 157 254 214 214 208 203 164 221 199 159 124 110 102 101 95 93 88 77 60 73 90 79 65 46 22 356 311 280 281 277 276 274 275 272 273
156 156 177 168 189 275 234 162 136 159 245 173 195 205 200 200 215 154 134 99 109 113 102 103 92 77 64 73 97 87 75 53 41 49 53 38 19 356 332 314 298 293 291 282
165 155 170 110 175 250 174 144 174 170 128 186 184 196 182 142 129 141 124 124 122 111 99 105 92 75 69 83 91 78 62 53 63 66 63 58 48 38 21 4 337 322 305 290
189 189 171 193 187 196 197 176 194 148 154 190 152 155 135 132 141 137 135 127 112 108 105 113 105 91 77 75 77 74 58 66 69 69 64 61 55 51 39 22 3 332 315 288
256 169 153 121 222 193 143 119 136 161 143 134 123 129 139 131 142 129 125 122 113 111 115 118 108 94 82 79 77 77 74 74 78 78 70 63 62 58 50 32 12 359 343 317
192 137 151 241 337 84 310 203 157 132 117 101 69 102 123 130 129 131 130 126 122 121 123 121 111 102 97 93 86 87 93 95 93 88 82 74 65 57 56 50 34 18 0 338
346 190 186 208 183 161 194 195 133 133 153 141 125 99 76 133 132 131 126 126 128 126 125 116 115 113 108 102 95 89 91 96 94 84 75 74 67 59 59 57 59 52 27 348